Regional Weather Roundup
Issued by NWS Raleigh/Durham, NC

Home | Current Version | Previous Version | Text Only | Print | Product List | Glossary On
Versions: 1 2 3 4 5 6 7 8 9 10 11 12 13 14 15 16 17 18 19 20 21 22 23 24 25 26 27
000
ASUS42 KRAH 180110
RWRRAH
NORTH CAROLINA WEATHER ROUNDUP
NATIONAL WEATHER SERVICE RALEIGH NC
900 PM EDT THU AUG 17 2017

NOTE: "FAIR" INDICATES FEW OR NO CLOUDS BELOW 12,000 FEET WITH NO
SIGNIFICANT WEATHER AND/OR OBSTRUCTIONS TO VISIBILITY.

NCZ001-053-055-056-065-067-180200-
WESTERN NORTH CAROLINA

CITY           SKY/WX    TMP DP  RH WIND       PRES   REMARKS
ASHEVILLE      MOCLDY    76  71  85 CALM      30.08R
JEFFERSON      CLEAR     71  68  91 CALM      30.11F
MORGANTON      LGT RAIN  74  74  99 CALM      30.05F
HICKORY        CLOUDY    76  74  93 NE3       30.00F
RUTHERFORDTON  PTCLDY    79  75  89 CALM      30.01S
MOUNT AIRY     PTCLDY    81  74  79 CALM      30.01S
BOONE          CLOUDY    70  70 100 CALM      30.14S
$$

NCZ021-022-025-041-071-084-088-180200-
CENTRAL NORTH CAROLINA

CITY           SKY/WX    TMP DP  RH WIND       PRES   REMARKS
CHARLOTTE      PTCLDY    85  76  74 S7        29.98R
GREENSBORO     MOCLDY    84  75  74 S8        29.96F
WINSTON-SALEM  PTCLDY    83  76  79 CALM      29.98F
RALEIGH-DURHAM CLOUDY    79  74  84 S7        29.98F
FORT BRAGG     CLOUDY    78  73  85 SE3       29.97S
FAYETTEVILLE   CLOUDY    77  76  96 SE5       29.97R
BURLINGTON     CLEAR     83  76  79 SE3       29.96S
LAURINBURG     PTCLDY    79  78  97 S6        29.97R
$$

NCZ011-015-027-028-043-044-047-080-103-180200-
NORTHEASTERN NORTH CAROLINA

CITY           SKY/WX    TMP DP  RH WIND       PRES   REMARKS
ROCKY MT-WILSO CLOUDY    77  75  93 S3        29.98S
GREENVILLE     CLOUDY    81  79  94 CALM      30.00S
WASHINGTON     MOCLDY    79  77  92 SE3       29.98F
ELIZABETH CITY CLOUDY    81  76  84 S8        29.99S
MANTEO         PTCLDY    81  73  76 SW14      30.00F
CAPE HATTERAS  PTCLDY    82  74  76 S8        30.01S
$$

NCZ078-087-090-091-093-098-101-180200-
SOUTHEASTERN NORTH CAROLINA

CITY           SKY/WX    TMP DP  RH WIND       PRES   REMARKS
LUMBERTON      PTCLDY    76  75  97 S6        29.96S
GOLDSBORO      CLEAR     77  77 100 CALM      29.97S
KINSTON        CLOUDY    81  77  89 CALM      29.99S
KENANSVILLE    CLOUDY    77  75  94 CALM      29.98S
NEW BERN       MOCLDY    81  79  94 SE6       29.99F
CHERRY POINT   PTCLDY    81  77  88 SE5       30.00F
BEAUFORT       PTCLDY    82  80  94 S5        30.00S
JACKSONVILLE   CLOUDY    82  80  94 S3        29.98S
WILMINGTON     CLOUDY    79  77  94 CALM      29.98R
$$





USA.gov is the U.S. government's official web portal to all federal, state and local government web resources and services.